PSAT2 (NO-104) (44354 NORAD) Tracking and Keplerian Element Data

This shows tracking and keplerian element data for the satellite.

Feedback or suggestion? Click here.




ElementValue
Catalog44354
NamePSAT2 (NO-104)
Epoch Orbit19748
Epoch Day13.98901575
Epoch Year2023
RAAN124.5465
Inclination28.5161
Eccentricity0.0095855
Argument of Perigee239.5304
Mean Anonmoly119.581
Mean Motion15.84013951
Decay Rate0.00322775
L11 44354U 19036R 23013.98901575 .00322775 27197-4 94406-3 0 9994
L22 44354 28.5161 124.5465 0095855 239.5304 119.5810 15.84013951197481



Live tracking and technical data element details for PSAT2 (NO-104) (NORAD 44354). PSAT2 (NO-104) can be tracked NOW for your location showing map with azimuth and elevation plus other details from your city location.







IsCatalogInMostPopularTable: catalog: 44354, numindb: 342
Update: records affected: 1



GetName: 44354 PSAT2 (NO-104)

Hit Count: updated at: Thu, 23 Jan 2025 16:23:05 GMT